sat.trackr.live / text

‹ back to catalog

STARLINK-5130

NORAD 53997 · 2022-125AK

PAYLOAD ACTIVE UNKNOWN

§ Identity

Operator
Country
US
Launch date
2022-10-05
Launch site
AFWTR
Launch vehicle
Mass (kg)
RCS (m²)

Purposes: comms

External: N2YO · Heavens-Above · Gunter

§ Orbital elements

Epoch: 2026-05-25T05:21:39.545568Z

Period
95.44 min
Inclination
53.2147°
Eccentricity
0.0001165
Mean motion
15.08836630 rev/d
Perigee alt
538.9 km
Apogee alt
540.6 km
Semi-major
6,917.9 km
B*
3.8087e-5
RAAN
220.7741°
Arg perigee
83.9687°
Mean anomaly
276.1438°
Rev number
20,115

§ Raw data

STARLINK-51301 53997U 22125AK  26145.22337437  .00000318  00000+0  38087-4 0  99952 53997  53.2147 220.7741 0001165  83.9687 276.1438 15.08836630201154

JSON: /api/v1/satellites/53997 · /tle

For live sub-satellite position, see the globe view (requires WebGL).

§ Visibility from observer

Set your observer location to see the next 7 days of passes ≥ 10°. The values pass through the URL so the page stays shareable.

No JS? Fill the form by hand. The geolocation button needs JavaScript.